<?xml version="1.0" encoding="UTF-8" standalone="no" ?>
<gpx xmlns="http://www.topografix.com/GPX/1/1" xmlns:xsi="http://www.w3.org/2001/XMLSchema-instance" xsi:schemaLocation="http://www.topografix.com/GPX/1/1 http://www.topografix.com/GPX/1/1/gpx.xsd" version="1.1" creator="VisuGPX - https://www.visugpx.com">
  <metadata>
    <name>Neufmanil</name>
    <desc><![CDATA[Bois de Neufmanil]]></desc>
  </metadata>
  <trk>
    <name><![CDATA[Neufmanil_1]]></name>
    <trkseg>
      <trkpt lat="49.81124" lon="4.79598">
        <ele>175.2</ele>
        <time>2021-04-28T08:56:49Z</time>
      </trkpt>
      <trkpt lat="49.81135" lon="4.79603">
        <ele>175</ele>
        <time>2021-04-28T08:56:49Z</time>
      </trkpt>
      <trkpt lat="49.81144" lon="4.79602">
        <ele>174.7</ele>
        <time>2021-04-28T08:56:49Z</time>
      </trkpt>
      <trkpt lat="49.81154" lon="4.79597">
        <ele>174.4</ele>
        <time>2021-04-28T08:56:49Z</time>
      </trkpt>
      <trkpt lat="49.8116" lon="4.79592">
        <ele>174.2</ele>
        <time>2021-04-28T08:56:49Z</time>
      </trkpt>
      <trkpt lat="49.81164" lon="4.79588">
        <ele>174.2</ele>
        <time>2021-04-28T08:56:49Z</time>
      </trkpt>
      <trkpt lat="49.81176" lon="4.79576">
        <ele>173.9</ele>
        <time>2021-04-28T08:56:49Z</time>
      </trkpt>
      <trkpt lat="49.81186" lon="4.79568">
        <ele>173.8</ele>
        <time>2021-04-28T08:56:49Z</time>
      </trkpt>
      <trkpt lat="49.81198" lon="4.7956">
        <ele>173.8</ele>
        <time>2021-04-28T08:56:49Z</time>
      </trkpt>
      <trkpt lat="49.81211" lon="4.79552">
        <ele>173.7</ele>
        <time>2021-04-28T08:56:49Z</time>
      </trkpt>
      <trkpt lat="49.81223" lon="4.79545">
        <ele>173.5</ele>
        <time>2021-04-28T08:56:49Z</time>
      </trkpt>
      <trkpt lat="49.8123" lon="4.7954">
        <ele>173.4</ele>
        <time>2021-04-28T08:56:49Z</time>
      </trkpt>
      <trkpt lat="49.81247" lon="4.79528">
        <ele>173.1</ele>
        <time>2021-04-28T08:56:49Z</time>
      </trkpt>
      <trkpt lat="49.81257" lon="4.79519">
        <ele>173</ele>
        <time>2021-04-28T08:56:49Z</time>
      </trkpt>
      <trkpt lat="49.81265" lon="4.79509">
        <ele>172.7</ele>
        <time>2021-04-28T08:56:49Z</time>
      </trkpt>
      <trkpt lat="49.81272" lon="4.79498">
        <ele>172.9</ele>
        <time>2021-04-28T08:56:49Z</time>
      </trkpt>
      <trkpt lat="49.81286" lon="4.79463">
        <ele>172.8</ele>
        <time>2021-04-28T08:56:49Z</time>
      </trkpt>
      <trkpt lat="49.81298" lon="4.79431">
        <ele>172.7</ele>
        <time>2021-04-28T08:56:49Z</time>
      </trkpt>
      <trkpt lat="49.81305" lon="4.79413">
        <ele>172.9</ele>
        <time>2021-04-28T08:56:49Z</time>
      </trkpt>
      <trkpt lat="49.81308" lon="4.79405">
        <ele>172.9</ele>
        <time>2021-04-28T08:56:49Z</time>
      </trkpt>
      <trkpt lat="49.81311" lon="4.79399">
        <ele>171.8</ele>
        <time>2021-04-28T08:56:49Z</time>
      </trkpt>
      <trkpt lat="49.81314" lon="4.79392">
        <ele>173.3</ele>
        <time>2021-04-28T08:56:49Z</time>
      </trkpt>
      <trkpt lat="49.81317" lon="4.79384">
        <ele>173.3</ele>
        <time>2021-04-28T08:56:49Z</time>
      </trkpt>
      <trkpt lat="49.8132" lon="4.79376">
        <ele>173.5</ele>
        <time>2021-04-28T08:56:49Z</time>
      </trkpt>
      <trkpt lat="49.81323" lon="4.79361">
        <ele>173.7</ele>
        <time>2021-04-28T08:56:49Z</time>
      </trkpt>
      <trkpt lat="49.81326" lon="4.79272">
        <ele>174.8</ele>
        <time>2021-04-28T08:56:49Z</time>
      </trkpt>
      <trkpt lat="49.81326" lon="4.79264">
        <ele>174.8</ele>
        <time>2021-04-28T08:56:49Z</time>
      </trkpt>
      <trkpt lat="49.81337" lon="4.79169">
        <ele>174.8</ele>
        <time>2021-04-28T08:56:49Z</time>
      </trkpt>
      <trkpt lat="49.8136" lon="4.79093">
        <ele>174.9</ele>
        <time>2021-04-28T08:56:49Z</time>
      </trkpt>
      <trkpt lat="49.81367" lon="4.79072">
        <ele>174.9</ele>
        <time>2021-04-28T08:56:49Z</time>
      </trkpt>
      <trkpt lat="49.81416" lon="4.78937">
        <ele>175.6</ele>
        <time>2021-04-28T08:56:49Z</time>
      </trkpt>
      <trkpt lat="49.81417" lon="4.78929">
        <ele>175.2</ele>
        <time>2021-04-28T08:56:49Z</time>
      </trkpt>
      <trkpt lat="49.81429" lon="4.78868">
        <ele>175.2</ele>
        <time>2021-04-28T08:56:49Z</time>
      </trkpt>
      <trkpt lat="49.81445" lon="4.78804">
        <ele>174.6</ele>
        <time>2021-04-28T08:56:49Z</time>
      </trkpt>
      <trkpt lat="49.81472" lon="4.78733">
        <ele>174.7</ele>
        <time>2021-04-28T08:56:49Z</time>
      </trkpt>
      <trkpt lat="49.8149" lon="4.78703">
        <ele>174.5</ele>
        <time>2021-04-28T08:56:49Z</time>
      </trkpt>
      <trkpt lat="49.81497" lon="4.78694">
        <ele>174.4</ele>
        <time>2021-04-28T08:56:49Z</time>
      </trkpt>
      <trkpt lat="49.81529" lon="4.78661">
        <ele>175</ele>
        <time>2021-04-28T08:56:49Z</time>
      </trkpt>
      <trkpt lat="49.81556" lon="4.78632">
        <ele>175.8</ele>
        <time>2021-04-28T08:56:49Z</time>
      </trkpt>
      <trkpt lat="49.81575" lon="4.78617">
        <ele>176.7</ele>
        <time>2021-04-28T08:56:49Z</time>
      </trkpt>
      <trkpt lat="49.81584" lon="4.78613">
        <ele>177.2</ele>
        <time>2021-04-28T08:56:49Z</time>
      </trkpt>
      <trkpt lat="49.81591" lon="4.78614">
        <ele>177.2</ele>
        <time>2021-04-28T08:56:49Z</time>
      </trkpt>
      <trkpt lat="49.81599" lon="4.78615">
        <ele>177.5</ele>
        <time>2021-04-28T08:56:49Z</time>
      </trkpt>
      <trkpt lat="49.81618" lon="4.78625">
        <ele>177.7</ele>
        <time>2021-04-28T08:56:49Z</time>
      </trkpt>
      <trkpt lat="49.81627" lon="4.7863">
        <ele>177.8</ele>
        <time>2021-04-28T08:56:49Z</time>
      </trkpt>
      <trkpt lat="49.81635" lon="4.78634">
        <ele>177.9</ele>
        <time>2021-04-28T08:56:49Z</time>
      </trkpt>
      <trkpt lat="49.81662" lon="4.78651">
        <ele>178.8</ele>
        <time>2021-04-28T08:56:49Z</time>
      </trkpt>
      <trkpt lat="49.81685" lon="4.78669">
        <ele>179.6</ele>
        <time>2021-04-28T08:56:49Z</time>
      </trkpt>
      <trkpt lat="49.81705" lon="4.78689">
        <ele>180.2</ele>
        <time>2021-04-28T08:56:49Z</time>
      </trkpt>
      <trkpt lat="49.81727" lon="4.78707">
        <ele>180.5</ele>
        <time>2021-04-28T08:56:49Z</time>
      </trkpt>
      <trkpt lat="49.81778" lon="4.78757">
        <ele>181.9</ele>
        <time>2021-04-28T08:56:49Z</time>
      </trkpt>
      <trkpt lat="49.81898" lon="4.78876">
        <ele>186.1</ele>
        <time>2021-04-28T08:56:49Z</time>
      </trkpt>
      <trkpt lat="49.81925" lon="4.78906">
        <ele>187.1</ele>
        <time>2021-04-28T08:56:49Z</time>
      </trkpt>
      <trkpt lat="49.81969" lon="4.78949">
        <ele>187.3</ele>
        <time>2021-04-28T08:56:49Z</time>
      </trkpt>
      <trkpt lat="49.82014" lon="4.79012">
        <ele>188.1</ele>
        <time>2021-04-28T08:56:49Z</time>
      </trkpt>
      <trkpt lat="49.82018" lon="4.79017">
        <ele>188.3</ele>
        <time>2021-04-28T08:56:49Z</time>
      </trkpt>
      <trkpt lat="49.82032" lon="4.79033">
        <ele>188.3</ele>
        <time>2021-04-28T08:56:49Z</time>
      </trkpt>
      <trkpt lat="49.82049" lon="4.7905">
        <ele>188.2</ele>
        <time>2021-04-28T08:56:49Z</time>
      </trkpt>
      <trkpt lat="49.8208" lon="4.79074">
        <ele>187.9</ele>
        <time>2021-04-28T08:56:49Z</time>
      </trkpt>
      <trkpt lat="49.82093" lon="4.79087">
        <ele>187.5</ele>
        <time>2021-04-28T08:56:49Z</time>
      </trkpt>
      <trkpt lat="49.82126" lon="4.79123">
        <ele>186.8</ele>
        <time>2021-04-28T08:56:49Z</time>
      </trkpt>
      <trkpt lat="49.82131" lon="4.79128">
        <ele>186.8</ele>
        <time>2021-04-28T08:56:49Z</time>
      </trkpt>
      <trkpt lat="49.82149" lon="4.79137">
        <ele>187</ele>
        <time>2021-04-28T08:56:49Z</time>
      </trkpt>
      <trkpt lat="49.82156" lon="4.79143">
        <ele>187.4</ele>
        <time>2021-04-28T08:56:49Z</time>
      </trkpt>
      <trkpt lat="49.82205" lon="4.79174">
        <ele>190.6</ele>
        <time>2021-04-28T08:56:49Z</time>
      </trkpt>
      <trkpt lat="49.82223" lon="4.79182">
        <ele>191.3</ele>
        <time>2021-04-28T08:56:49Z</time>
      </trkpt>
      <trkpt lat="49.82258" lon="4.79193">
        <ele>192</ele>
        <time>2021-04-28T08:56:49Z</time>
      </trkpt>
      <trkpt lat="49.82293" lon="4.79204">
        <ele>193.3</ele>
        <time>2021-04-28T08:56:49Z</time>
      </trkpt>
      <trkpt lat="49.82353" lon="4.79224">
        <ele>196.3</ele>
        <time>2021-04-28T08:56:49Z</time>
      </trkpt>
      <trkpt lat="49.82364" lon="4.79226">
        <ele>196.7</ele>
        <time>2021-04-28T08:56:49Z</time>
      </trkpt>
      <trkpt lat="49.82393" lon="4.79232">
        <ele>198.5</ele>
        <time>2021-04-28T08:56:49Z</time>
      </trkpt>
      <trkpt lat="49.82489" lon="4.7924">
        <ele>201.6</ele>
        <time>2021-04-28T08:56:49Z</time>
      </trkpt>
      <trkpt lat="49.82535" lon="4.79247">
        <ele>201.4</ele>
        <time>2021-04-28T08:56:49Z</time>
      </trkpt>
      <trkpt lat="49.82611" lon="4.79261">
        <ele>202.8</ele>
        <time>2021-04-28T08:56:49Z</time>
      </trkpt>
      <trkpt lat="49.82628" lon="4.79268">
        <ele>203.4</ele>
        <time>2021-04-28T08:56:49Z</time>
      </trkpt>
      <trkpt lat="49.82637" lon="4.79273">
        <ele>204</ele>
        <time>2021-04-28T08:56:49Z</time>
      </trkpt>
      <trkpt lat="49.8265" lon="4.79283">
        <ele>204.8</ele>
        <time>2021-04-28T08:56:49Z</time>
      </trkpt>
      <trkpt lat="49.8272" lon="4.79336">
        <ele>205.8</ele>
        <time>2021-04-28T08:56:49Z</time>
      </trkpt>
      <trkpt lat="49.82754" lon="4.79376">
        <ele>206.1</ele>
        <time>2021-04-28T08:56:49Z</time>
      </trkpt>
      <trkpt lat="49.82766" lon="4.79393">
        <ele>206.5</ele>
        <time>2021-04-28T08:56:49Z</time>
      </trkpt>
      <trkpt lat="49.82774" lon="4.79407">
        <ele>206.9</ele>
        <time>2021-04-28T08:56:49Z</time>
      </trkpt>
      <trkpt lat="49.82785" lon="4.7943">
        <ele>207.2</ele>
        <time>2021-04-28T08:56:49Z</time>
      </trkpt>
      <trkpt lat="49.82808" lon="4.79499">
        <ele>207.4</ele>
        <time>2021-04-28T08:56:49Z</time>
      </trkpt>
      <trkpt lat="49.82817" lon="4.79537">
        <ele>207.3</ele>
        <time>2021-04-28T08:56:49Z</time>
      </trkpt>
      <trkpt lat="49.82822" lon="4.79564">
        <ele>207.4</ele>
        <time>2021-04-28T08:56:49Z</time>
      </trkpt>
      <trkpt lat="49.82828" lon="4.79597">
        <ele>206.1</ele>
        <time>2021-04-28T08:56:49Z</time>
      </trkpt>
      <trkpt lat="49.82833" lon="4.79626">
        <ele>206.1</ele>
        <time>2021-04-28T08:56:49Z</time>
      </trkpt>
      <trkpt lat="49.82839" lon="4.79652">
        <ele>206.3</ele>
        <time>2021-04-28T08:56:49Z</time>
      </trkpt>
      <trkpt lat="49.82844" lon="4.7967">
        <ele>206.5</ele>
        <time>2021-04-28T08:56:49Z</time>
      </trkpt>
      <trkpt lat="49.82849" lon="4.79688">
        <ele>206.6</ele>
        <time>2021-04-28T08:56:49Z</time>
      </trkpt>
      <trkpt lat="49.82851" lon="4.79696">
        <ele>206.5</ele>
        <time>2021-04-28T08:56:49Z</time>
      </trkpt>
      <trkpt lat="49.82856" lon="4.79721">
        <ele>206.7</ele>
        <time>2021-04-28T08:56:49Z</time>
      </trkpt>
      <trkpt lat="49.82859" lon="4.79738">
        <ele>207.1</ele>
        <time>2021-04-28T08:56:49Z</time>
      </trkpt>
      <trkpt lat="49.82863" lon="4.79764">
        <ele>207.5</ele>
        <time>2021-04-28T08:56:49Z</time>
      </trkpt>
      <trkpt lat="49.82867" lon="4.79801">
        <ele>207.8</ele>
        <time>2021-04-28T08:56:49Z</time>
      </trkpt>
      <trkpt lat="49.82873" lon="4.79853">
        <ele>208.4</ele>
        <time>2021-04-28T08:56:49Z</time>
      </trkpt>
      <trkpt lat="49.82878" lon="4.79886">
        <ele>208.5</ele>
        <time>2021-04-28T08:56:49Z</time>
      </trkpt>
      <trkpt lat="49.82881" lon="4.79916">
        <ele>208.8</ele>
        <time>2021-04-28T08:56:49Z</time>
      </trkpt>
      <trkpt lat="49.82887" lon="4.79947">
        <ele>209.1</ele>
        <time>2021-04-28T08:56:49Z</time>
      </trkpt>
      <trkpt lat="49.82893" lon="4.79971">
        <ele>208.9</ele>
        <time>2021-04-28T08:56:49Z</time>
      </trkpt>
      <trkpt lat="49.82899" lon="4.79999">
        <ele>208.7</ele>
        <time>2021-04-28T08:56:49Z</time>
      </trkpt>
      <trkpt lat="49.82904" lon="4.80031">
        <ele>209.4</ele>
        <time>2021-04-28T08:56:49Z</time>
      </trkpt>
      <trkpt lat="49.82908" lon="4.80055">
        <ele>208.9</ele>
        <time>2021-04-28T08:56:49Z</time>
      </trkpt>
      <trkpt lat="49.82912" lon="4.80075">
        <ele>208.2</ele>
        <time>2021-04-28T08:56:49Z</time>
      </trkpt>
      <trkpt lat="49.82918" lon="4.80099">
        <ele>206.4</ele>
        <time>2021-04-28T08:56:49Z</time>
      </trkpt>
      <trkpt lat="49.82921" lon="4.80113">
        <ele>206</ele>
        <time>2021-04-28T08:56:49Z</time>
      </trkpt>
      <trkpt lat="49.82926" lon="4.80134">
        <ele>205.1</ele>
        <time>2021-04-28T08:56:49Z</time>
      </trkpt>
      <trkpt lat="49.82935" lon="4.80165">
        <ele>203.3</ele>
        <time>2021-04-28T08:56:49Z</time>
      </trkpt>
      <trkpt lat="49.82941" lon="4.80184">
        <ele>203.1</ele>
        <time>2021-04-28T08:56:49Z</time>
      </trkpt>
      <trkpt lat="49.82943" lon="4.802">
        <ele>204</ele>
        <time>2021-04-28T08:56:49Z</time>
      </trkpt>
      <trkpt lat="49.82946" lon="4.80222">
        <ele>202.8</ele>
        <time>2021-04-28T08:56:49Z</time>
      </trkpt>
      <trkpt lat="49.82948" lon="4.80238">
        <ele>202.3</ele>
        <time>2021-04-28T08:56:49Z</time>
      </trkpt>
      <trkpt lat="49.82952" lon="4.80252">
        <ele>202.2</ele>
        <time>2021-04-28T08:56:49Z</time>
      </trkpt>
      <trkpt lat="49.82959" lon="4.80255">
        <ele>202.1</ele>
        <time>2021-04-28T08:56:49Z</time>
      </trkpt>
      <trkpt lat="49.82975" lon="4.80258">
        <ele>201.9</ele>
        <time>2021-04-28T08:56:49Z</time>
      </trkpt>
      <trkpt lat="49.82981" lon="4.80258">
        <ele>201.9</ele>
        <time>2021-04-28T08:56:49Z</time>
      </trkpt>
      <trkpt lat="49.82989" lon="4.80259">
        <ele>202.3</ele>
        <time>2021-04-28T08:56:49Z</time>
      </trkpt>
      <trkpt lat="49.83003" lon="4.80254">
        <ele>202.6</ele>
        <time>2021-04-28T08:56:49Z</time>
      </trkpt>
      <trkpt lat="49.83011" lon="4.80251">
        <ele>203.4</ele>
        <time>2021-04-28T08:56:49Z</time>
      </trkpt>
      <trkpt lat="49.83005" lon="4.8024">
        <ele>203.2</ele>
        <time>2021-04-28T08:56:49Z</time>
      </trkpt>
      <trkpt lat="49.83003" lon="4.80213">
        <ele>203.3</ele>
        <time>2021-04-28T08:56:49Z</time>
      </trkpt>
      <trkpt lat="49.82992" lon="4.80178">
        <ele>204.1</ele>
        <time>2021-04-28T08:56:49Z</time>
      </trkpt>
      <trkpt lat="49.82989" lon="4.80165">
        <ele>203.4</ele>
        <time>2021-04-28T08:56:49Z</time>
      </trkpt>
      <trkpt lat="49.82988" lon="4.80148">
        <ele>202.8</ele>
        <time>2021-04-28T08:56:49Z</time>
      </trkpt>
      <trkpt lat="49.82988" lon="4.80065">
        <ele>201.9</ele>
        <time>2021-04-28T08:56:49Z</time>
      </trkpt>
      <trkpt lat="49.82985" lon="4.80022">
        <ele>200.8</ele>
        <time>2021-04-28T08:56:49Z</time>
      </trkpt>
      <trkpt lat="49.82979" lon="4.79963">
        <ele>201.7</ele>
        <time>2021-04-28T08:56:49Z</time>
      </trkpt>
      <trkpt lat="49.82965" lon="4.79892">
        <ele>199.8</ele>
        <time>2021-04-28T08:56:49Z</time>
      </trkpt>
      <trkpt lat="49.8296" lon="4.7987">
        <ele>199.7</ele>
        <time>2021-04-28T08:56:49Z</time>
      </trkpt>
      <trkpt lat="49.82946" lon="4.79789">
        <ele>199.6</ele>
        <time>2021-04-28T08:56:49Z</time>
      </trkpt>
      <trkpt lat="49.82929" lon="4.79667">
        <ele>197.5</ele>
        <time>2021-04-28T08:56:49Z</time>
      </trkpt>
      <trkpt lat="49.82921" lon="4.79619">
        <ele>196.6</ele>
        <time>2021-04-28T08:56:49Z</time>
      </trkpt>
      <trkpt lat="49.82918" lon="4.79599">
        <ele>198</ele>
        <time>2021-04-28T08:56:49Z</time>
      </trkpt>
      <trkpt lat="49.82914" lon="4.79563">
        <ele>199</ele>
        <time>2021-04-28T08:56:49Z</time>
      </trkpt>
      <trkpt lat="49.82915" lon="4.79553">
        <ele>198.5</ele>
        <time>2021-04-28T08:56:49Z</time>
      </trkpt>
      <trkpt lat="49.82926" lon="4.79538">
        <ele>198.5</ele>
        <time>2021-04-28T08:56:49Z</time>
      </trkpt>
      <trkpt lat="49.82935" lon="4.79531">
        <ele>199.1</ele>
        <time>2021-04-28T08:56:49Z</time>
      </trkpt>
      <trkpt lat="49.82958" lon="4.79524">
        <ele>201.1</ele>
        <time>2021-04-28T08:56:49Z</time>
      </trkpt>
      <trkpt lat="49.82984" lon="4.79525">
        <ele>202.5</ele>
        <time>2021-04-28T08:56:49Z</time>
      </trkpt>
      <trkpt lat="49.82993" lon="4.79522">
        <ele>202.8</ele>
        <time>2021-04-28T08:56:49Z</time>
      </trkpt>
      <trkpt lat="49.82998" lon="4.79515">
        <ele>202.9</ele>
        <time>2021-04-28T08:56:49Z</time>
      </trkpt>
      <trkpt lat="49.82997" lon="4.79501">
        <ele>203.7</ele>
        <time>2021-04-28T08:56:49Z</time>
      </trkpt>
      <trkpt lat="49.82994" lon="4.79492">
        <ele>203.8</ele>
        <time>2021-04-28T08:56:49Z</time>
      </trkpt>
      <trkpt lat="49.82984" lon="4.79481">
        <ele>204</ele>
        <time>2021-04-28T08:56:49Z</time>
      </trkpt>
      <trkpt lat="49.82974" lon="4.79478">
        <ele>203.8</ele>
        <time>2021-04-28T08:56:49Z</time>
      </trkpt>
      <trkpt lat="49.82944" lon="4.7947">
        <ele>203.5</ele>
        <time>2021-04-28T08:56:49Z</time>
      </trkpt>
      <trkpt lat="49.82931" lon="4.79462">
        <ele>202.3</ele>
        <time>2021-04-28T08:56:49Z</time>
      </trkpt>
      <trkpt lat="49.82925" lon="4.79454">
        <ele>201.4</ele>
        <time>2021-04-28T08:56:49Z</time>
      </trkpt>
      <trkpt lat="49.82912" lon="4.7943">
        <ele>199.7</ele>
        <time>2021-04-28T08:56:49Z</time>
      </trkpt>
      <trkpt lat="49.82903" lon="4.79403">
        <ele>198.7</ele>
        <time>2021-04-28T08:56:49Z</time>
      </trkpt>
      <trkpt lat="49.82891" lon="4.79365">
        <ele>197.9</ele>
        <time>2021-04-28T08:56:49Z</time>
      </trkpt>
      <trkpt lat="49.82865" lon="4.79308">
        <ele>195.6</ele>
        <time>2021-04-28T08:56:49Z</time>
      </trkpt>
      <trkpt lat="49.82849" lon="4.79286">
        <ele>195</ele>
        <time>2021-04-28T08:56:49Z</time>
      </trkpt>
      <trkpt lat="49.82826" lon="4.79266">
        <ele>195.4</ele>
        <time>2021-04-28T08:56:49Z</time>
      </trkpt>
      <trkpt lat="49.82816" lon="4.79255">
        <ele>195.1</ele>
        <time>2021-04-28T08:56:49Z</time>
      </trkpt>
      <trkpt lat="49.82785" lon="4.79189">
        <ele>194.4</ele>
        <time>2021-04-28T08:56:49Z</time>
      </trkpt>
      <trkpt lat="49.82774" lon="4.79173">
        <ele>194.1</ele>
        <time>2021-04-28T08:56:49Z</time>
      </trkpt>
      <trkpt lat="49.82762" lon="4.79162">
        <ele>194.2</ele>
        <time>2021-04-28T08:56:49Z</time>
      </trkpt>
      <trkpt lat="49.82746" lon="4.7915">
        <ele>193.6</ele>
        <time>2021-04-28T08:56:49Z</time>
      </trkpt>
      <trkpt lat="49.82726" lon="4.79134">
        <ele>193.6</ele>
        <time>2021-04-28T08:56:49Z</time>
      </trkpt>
      <trkpt lat="49.82721" lon="4.79131">
        <ele>193.7</ele>
        <time>2021-04-28T08:56:49Z</time>
      </trkpt>
      <trkpt lat="49.82693" lon="4.79113">
        <ele>193.1</ele>
        <time>2021-04-28T08:56:49Z</time>
      </trkpt>
      <trkpt lat="49.82661" lon="4.79112">
        <ele>192.8</ele>
        <time>2021-04-28T08:56:49Z</time>
      </trkpt>
      <trkpt lat="49.82648" lon="4.79109">
        <ele>191.7</ele>
        <time>2021-04-28T08:56:49Z</time>
      </trkpt>
      <trkpt lat="49.8264" lon="4.79105">
        <ele>191.2</ele>
        <time>2021-04-28T08:56:49Z</time>
      </trkpt>
      <trkpt lat="49.82628" lon="4.79099">
        <ele>190.5</ele>
        <time>2021-04-28T08:56:49Z</time>
      </trkpt>
      <trkpt lat="49.82585" lon="4.79078">
        <ele>190.8</ele>
        <time>2021-04-28T08:56:49Z</time>
      </trkpt>
      <trkpt lat="49.8258" lon="4.79076">
        <ele>192.3</ele>
        <time>2021-04-28T08:56:49Z</time>
      </trkpt>
      <trkpt lat="49.82567" lon="4.79073">
        <ele>190.9</ele>
        <time>2021-04-28T08:56:49Z</time>
      </trkpt>
      <trkpt lat="49.82558" lon="4.79071">
        <ele>191.2</ele>
        <time>2021-04-28T08:56:49Z</time>
      </trkpt>
      <trkpt lat="49.8252" lon="4.79067">
        <ele>190.6</ele>
        <time>2021-04-28T08:56:49Z</time>
      </trkpt>
      <trkpt lat="49.82492" lon="4.79059">
        <ele>189.5</ele>
        <time>2021-04-28T08:56:49Z</time>
      </trkpt>
      <trkpt lat="49.82483" lon="4.79061">
        <ele>188.8</ele>
        <time>2021-04-28T08:56:49Z</time>
      </trkpt>
      <trkpt lat="49.82455" lon="4.79069">
        <ele>189.3</ele>
        <time>2021-04-28T08:56:49Z</time>
      </trkpt>
      <trkpt lat="49.82437" lon="4.7907">
        <ele>189.3</ele>
        <time>2021-04-28T08:56:49Z</time>
      </trkpt>
      <trkpt lat="49.82424" lon="4.79066">
        <ele>188.8</ele>
        <time>2021-04-28T08:56:49Z</time>
      </trkpt>
      <trkpt lat="49.82404" lon="4.79055">
        <ele>188.8</ele>
        <time>2021-04-28T08:56:49Z</time>
      </trkpt>
      <trkpt lat="49.82391" lon="4.79049">
        <ele>188.4</ele>
        <time>2021-04-28T08:56:49Z</time>
      </trkpt>
      <trkpt lat="49.82381" lon="4.79046">
        <ele>188.1</ele>
        <time>2021-04-28T08:56:49Z</time>
      </trkpt>
      <trkpt lat="49.82369" lon="4.79045">
        <ele>187.9</ele>
        <time>2021-04-28T08:56:49Z</time>
      </trkpt>
      <trkpt lat="49.82336" lon="4.79043">
        <ele>188.3</ele>
        <time>2021-04-28T08:56:49Z</time>
      </trkpt>
      <trkpt lat="49.82315" lon="4.7904">
        <ele>188.5</ele>
        <time>2021-04-28T08:56:49Z</time>
      </trkpt>
      <trkpt lat="49.82293" lon="4.79032">
        <ele>188.6</ele>
        <time>2021-04-28T08:56:49Z</time>
      </trkpt>
      <trkpt lat="49.82253" lon="4.79013">
        <ele>187.5</ele>
        <time>2021-04-28T08:56:49Z</time>
      </trkpt>
      <trkpt lat="49.82201" lon="4.79005">
        <ele>189.1</ele>
        <time>2021-04-28T08:56:49Z</time>
      </trkpt>
      <trkpt lat="49.82192" lon="4.79002">
        <ele>189.7</ele>
        <time>2021-04-28T08:56:49Z</time>
      </trkpt>
      <trkpt lat="49.82186" lon="4.79001">
        <ele>189.6</ele>
        <time>2021-04-28T08:56:49Z</time>
      </trkpt>
      <trkpt lat="49.82175" lon="4.78994">
        <ele>190.1</ele>
        <time>2021-04-28T08:56:49Z</time>
      </trkpt>
      <trkpt lat="49.82162" lon="4.78981">
        <ele>190.1</ele>
        <time>2021-04-28T08:56:49Z</time>
      </trkpt>
      <trkpt lat="49.82144" lon="4.78953">
        <ele>190.1</ele>
        <time>2021-04-28T08:56:49Z</time>
      </trkpt>
      <trkpt lat="49.8213" lon="4.78933">
        <ele>190.3</ele>
        <time>2021-04-28T08:56:49Z</time>
      </trkpt>
      <trkpt lat="49.82119" lon="4.78914">
        <ele>189.4</ele>
        <time>2021-04-28T08:56:49Z</time>
      </trkpt>
      <trkpt lat="49.82108" lon="4.78893">
        <ele>188.8</ele>
        <time>2021-04-28T08:56:49Z</time>
      </trkpt>
      <trkpt lat="49.82081" lon="4.78826">
        <ele>186.8</ele>
        <time>2021-04-28T08:56:49Z</time>
      </trkpt>
      <trkpt lat="49.82073" lon="4.78812">
        <ele>186.8</ele>
        <time>2021-04-28T08:56:49Z</time>
      </trkpt>
      <trkpt lat="49.82053" lon="4.78793">
        <ele>185.8</ele>
        <time>2021-04-28T08:56:49Z</time>
      </trkpt>
      <trkpt lat="49.82027" lon="4.7877">
        <ele>184.5</ele>
        <time>2021-04-28T08:56:49Z</time>
      </trkpt>
      <trkpt lat="49.81989" lon="4.78737">
        <ele>182.3</ele>
        <time>2021-04-28T08:56:49Z</time>
      </trkpt>
      <trkpt lat="49.81921" lon="4.7868">
        <ele>180.3</ele>
        <time>2021-04-28T08:56:49Z</time>
      </trkpt>
      <trkpt lat="49.81867" lon="4.78624">
        <ele>179.2</ele>
        <time>2021-04-28T08:56:49Z</time>
      </trkpt>
      <trkpt lat="49.81835" lon="4.78587">
        <ele>178</ele>
        <time>2021-04-28T08:56:49Z</time>
      </trkpt>
      <trkpt lat="49.81809" lon="4.7856">
        <ele>176.6</ele>
        <time>2021-04-28T08:56:49Z</time>
      </trkpt>
      <trkpt lat="49.81784" lon="4.78541">
        <ele>175.8</ele>
        <time>2021-04-28T08:56:49Z</time>
      </trkpt>
      <trkpt lat="49.81742" lon="4.78513">
        <ele>173.5</ele>
        <time>2021-04-28T08:56:49Z</time>
      </trkpt>
      <trkpt lat="49.81712" lon="4.78491">
        <ele>171.7</ele>
        <time>2021-04-28T08:56:49Z</time>
      </trkpt>
      <trkpt lat="49.81696" lon="4.78473">
        <ele>170.9</ele>
        <time>2021-04-28T08:56:49Z</time>
      </trkpt>
      <trkpt lat="49.81678" lon="4.78452">
        <ele>170.9</ele>
        <time>2021-04-28T08:56:49Z</time>
      </trkpt>
      <trkpt lat="49.81649" lon="4.78424">
        <ele>171.5</ele>
        <time>2021-04-28T08:56:49Z</time>
      </trkpt>
      <trkpt lat="49.8164" lon="4.78413">
        <ele>170.5</ele>
        <time>2021-04-28T08:56:49Z</time>
      </trkpt>
      <trkpt lat="49.81618" lon="4.78378">
        <ele>170.2</ele>
        <time>2021-04-28T08:56:49Z</time>
      </trkpt>
      <trkpt lat="49.81606" lon="4.78357">
        <ele>170.3</ele>
        <time>2021-04-28T08:56:49Z</time>
      </trkpt>
      <trkpt lat="49.81601" lon="4.78347">
        <ele>171</ele>
        <time>2021-04-28T08:56:49Z</time>
      </trkpt>
      <trkpt lat="49.81594" lon="4.78329">
        <ele>171.1</ele>
        <time>2021-04-28T08:56:49Z</time>
      </trkpt>
      <trkpt lat="49.81586" lon="4.78301">
        <ele>170.3</ele>
        <time>2021-04-28T08:56:49Z</time>
      </trkpt>
      <trkpt lat="49.81584" lon="4.78274">
        <ele>169</ele>
        <time>2021-04-28T08:56:49Z</time>
      </trkpt>
      <trkpt lat="49.81583" lon="4.78264">
        <ele>167.4</ele>
        <time>2021-04-28T08:56:49Z</time>
      </trkpt>
      <trkpt lat="49.81581" lon="4.78274">
        <ele>168</ele>
        <time>2021-04-28T08:56:49Z</time>
      </trkpt>
      <trkpt lat="49.81571" lon="4.78304">
        <ele>167</ele>
        <time>2021-04-28T08:56:49Z</time>
      </trkpt>
      <trkpt lat="49.81564" lon="4.78317">
        <ele>165.7</ele>
        <time>2021-04-28T08:56:49Z</time>
      </trkpt>
      <trkpt lat="49.81559" lon="4.78324">
        <ele>165.6</ele>
        <time>2021-04-28T08:56:49Z</time>
      </trkpt>
      <trkpt lat="49.81548" lon="4.78336">
        <ele>165.8</ele>
        <time>2021-04-28T08:56:49Z</time>
      </trkpt>
      <trkpt lat="49.81548" lon="4.78328">
        <ele>165.8</ele>
        <time>2021-04-28T08:56:49Z</time>
      </trkpt>
      <trkpt lat="49.8155" lon="4.78312">
        <ele>165.7</ele>
        <time>2021-04-28T08:56:49Z</time>
      </trkpt>
      <trkpt lat="49.81548" lon="4.78328">
        <ele>165.8</ele>
        <time>2021-04-28T08:56:49Z</time>
      </trkpt>
      <trkpt lat="49.81548" lon="4.78336">
        <ele>165.8</ele>
        <time>2021-04-28T08:56:49Z</time>
      </trkpt>
      <trkpt lat="49.81549" lon="4.78349">
        <ele>166.1</ele>
        <time>2021-04-28T08:56:49Z</time>
      </trkpt>
      <trkpt lat="49.81549" lon="4.7836">
        <ele>166.2</ele>
        <time>2021-04-28T08:56:49Z</time>
      </trkpt>
      <trkpt lat="49.81542" lon="4.784">
        <ele>166.6</ele>
        <time>2021-04-28T08:56:49Z</time>
      </trkpt>
      <trkpt lat="49.81541" lon="4.78468">
        <ele>167.1</ele>
        <time>2021-04-28T08:56:49Z</time>
      </trkpt>
      <trkpt lat="49.81539" lon="4.7848">
        <ele>167.4</ele>
        <time>2021-04-28T08:56:49Z</time>
      </trkpt>
      <trkpt lat="49.81533" lon="4.78494">
        <ele>167.4</ele>
        <time>2021-04-28T08:56:49Z</time>
      </trkpt>
      <trkpt lat="49.81492" lon="4.78566">
        <ele>169</ele>
        <time>2021-04-28T08:56:49Z</time>
      </trkpt>
      <trkpt lat="49.81477" lon="4.78613">
        <ele>169.7</ele>
        <time>2021-04-28T08:56:49Z</time>
      </trkpt>
      <trkpt lat="49.81474" lon="4.78633">
        <ele>170.2</ele>
        <time>2021-04-28T08:56:49Z</time>
      </trkpt>
      <trkpt lat="49.81474" lon="4.78643">
        <ele>170.4</ele>
        <time>2021-04-28T08:56:49Z</time>
      </trkpt>
      <trkpt lat="49.81475" lon="4.78658">
        <ele>170.8</ele>
        <time>2021-04-28T08:56:49Z</time>
      </trkpt>
      <trkpt lat="49.81483" lon="4.78689">
        <ele>172.7</ele>
        <time>2021-04-28T08:56:49Z</time>
      </trkpt>
      <trkpt lat="49.8149" lon="4.78703">
        <ele>174.5</ele>
        <time>2021-04-28T08:56:49Z</time>
      </trkpt>
      <trkpt lat="49.81487" lon="4.78708">
        <ele>174.5</ele>
        <time>2021-04-28T08:56:49Z</time>
      </trkpt>
    </trkseg>
  </trk>
</gpx>